Time,TemperatureF,DewpointF,PressureIn,WindDirection,WindDirectionDegrees,WindSpeedMPH,WindSpeedGustMPH,Humidity,HourlyPrecipIn,Conditions,Clouds,dailyrainin,SoftwareType,DateUTC
2013-03-14 00:00:00,49.4,25.5,30.37,NE,42,0.0,0.0,39,0.00,,CLR,0.00,VWS V14.01,2013-03-14 05:00:00,
2013-03-14 00:05:00,49.3,26.0,30.37,NE,42,0.0,0.0,40,0.00,,CLR,0.00,VWS V14.01,2013-03-14 05:05:00,
2013-03-14 00:10:00,49.2,26.5,30.36,NE,42,0.0,0.0,41,0.00,,CLR,0.00,VWS V14.01,2013-03-14 05:10:00,
2013-03-14 00:15:00,49.0,26.3,30.36,NE,42,0.0,0.0,41,0.00,,CLR,0.00,VWS V14.01,2013-03-14 05:15:00,
2013-03-14 00:20:00,48.9,26.8,30.36,NE,42,0.0,0.0,42,0.00,,CLR,0.00,VWS V14.01,2013-03-14 05:20:00,
2013-03-14 00:25:00,48.7,26.6,30.37,NE,42,0.0,0.0,42,0.00,,CLR,0.00,VWS V14.01,2013-03-14 05:25:00,
2013-03-14 00:30:00,48.5,27.0,30.37,NE,42,0.0,0.0,43,0.00,,CLR,0.00,VWS V14.01,2013-03-14 05:30:00,
2013-03-14 00:35:00,48.3,27.4,30.36,NE,42,0.0,0.0,44,0.00,,CLR,0.00,VWS V14.01,2013-03-14 05:35:00,
2013-03-14 00:40:00,48.0,28.2,30.36,NE,42,0.0,0.0,46,0.00,,CLR,0.00,VWS V14.01,2013-03-14 05:40:00,
2013-03-14 00:45:00,47.7,28.0,30.36,NE,42,0.0,0.0,46,0.00,,CLR,0.00,VWS V14.01,2013-03-14 05:45:00,
2013-03-14 00:50:00,47.4,29.2,30.37,NE,42,0.0,0.0,49,0.00,,CLR,0.00,VWS V14.01,2013-03-14 05:50:00,
2013-03-14 00:55:00,47.2,29.5,30.37,NE,42,0.0,0.0,50,0.00,,CLR,0.00,VWS V14.01,2013-03-14 05:55:00,
2013-03-14 01:00:00,47.0,30.8,30.37,NE,42,0.0,0.0,53,0.00,,CLR,0.00,VWS V14.01,2013-03-14 06:00:00,
2013-03-14 01:05:00,46.8,31.5,30.36,NE,42,0.0,0.0,55,0.00,,CLR,0.00,VWS V14.01,2013-03-14 06:05:00,
2013-03-14 01:10:00,46.5,31.2,30.36,NE,42,0.0,0.0,55,0.00,,CLR,0.00,VWS V14.01,2013-03-14 06:10:00,
2013-03-14 01:15:00,46.3,32.3,30.36,NE,42,0.0,0.0,58,0.00,,CLR,0.00,VWS V14.01,2013-03-14 06:15:00,
2013-03-14 01:20:00,46.0,32.5,30.36,NE,42,0.0,0.0,59,0.00,,CLR,0.00,VWS V14.01,2013-03-14 06:20:00,
2013-03-14 01:25:00,45.7,32.2,30.36,NE,42,0.0,0.0,59,0.00,,CLR,0.00,VWS V14.01,2013-03-14 06:25:00,
2013-03-14 01:30:00,45.4,31.9,30.37,NE,42,0.0,0.0,59,0.00,,CLR,0.00,VWS V14.01,2013-03-14 06:30:00,
2013-03-14 01:35:00,45.2,30.9,30.36,NE,42,0.0,0.0,57,0.00,,CLR,0.00,VWS V14.01,2013-03-14 06:35:00,
2013-03-14 01:40:00,45.3,30.5,30.36,NE,42,0.0,0.0,56,0.00,,CLR,0.00,VWS V14.01,2013-03-14 06:40:00,
2013-03-14 01:45:00,45.4,30.2,30.36,NE,42,0.0,0.0,55,0.00,,CLR,0.00,VWS V14.01,2013-03-14 06:45:00,
2013-03-14 01:50:00,45.5,29.4,30.37,NE,42,0.0,0.0,53,0.00,,CLR,0.00,VWS V14.01,2013-03-14 06:50:00,
2013-03-14 01:55:00,45.6,29.5,30.37,NE,42,0.0,0.0,53,0.00,,CLR,0.00,VWS V14.01,2013-03-14 06:55:00,
2013-03-14 02:00:00,45.6,29.0,30.36,NE,42,0.0,0.0,52,0.00,,CLR,0.00,VWS V14.01,2013-03-14 07:00:00,
2013-03-14 02:05:00,45.6,28.5,30.37,NE,42,0.0,0.0,51,0.00,,CLR,0.00,VWS V14.01,2013-03-14 07:05:00,
2013-03-14 02:10:00,45.6,28.5,30.37,NE,42,0.0,0.0,51,0.00,,CLR,0.00,VWS V14.01,2013-03-14 07:10:00,
2013-03-14 02:15:00,45.6,28.0,30.37,NE,42,0.0,0.0,50,0.00,,CLR,0.00,VWS V14.01,2013-03-14 07:15:00,
2013-03-14 02:20:00,45.6,29.0,30.36,NE,42,0.0,0.0,52,0.00,,CLR,0.00,VWS V14.01,2013-03-14 07:20:00,
2013-03-14 02:25:00,45.5,29.4,30.36,NE,42,0.0,0.0,53,0.00,,CLR,0.00,VWS V14.01,2013-03-14 07:25:00,
2013-03-14 02:30:00,45.4,30.6,30.36,NE,42,0.0,0.0,56,0.00,,CLR,0.00,VWS V14.01,2013-03-14 07:30:00,
2013-03-14 02:35:00,45.2,29.6,30.36,NE,42,0.0,0.0,54,0.00,,CLR,0.00,VWS V14.01,2013-03-14 07:35:00,
2013-03-14 02:40:00,45.1,29.0,30.36,NE,42,0.0,0.0,53,0.00,,CLR,0.00,VWS V14.01,2013-03-14 07:40:00,
2013-03-14 02:45:00,45.0,30.3,30.36,NE,42,0.0,0.0,56,0.00,,CLR,0.00,VWS V14.01,2013-03-14 07:45:00,
2013-03-14 02:50:00,44.8,29.6,30.36,NE,42,0.0,0.0,55,0.00,,CLR,0.00,VWS V14.01,2013-03-14 07:50:00,
2013-03-14 02:55:00,44.5,31.1,30.36,NE,42,0.0,0.0,59,0.00,,CLR,0.00,VWS V14.01,2013-03-14 07:55:00,
2013-03-14 03:00:00,44.3,30.0,30.35,ESE,103,0.0,1.5,57,0.00,,CLR,0.00,VWS V14.01,2013-03-14 08:00:00,
2013-03-14 03:05:00,44.2,29.5,30.35,ESE,103,0.0,0.0,56,0.00,,CLR,0.00,VWS V14.01,2013-03-14 08:05:00,
2013-03-14 03:10:00,44.0,28.9,30.35,ESE,103,0.0,0.0,55,0.00,,CLR,0.00,VWS V14.01,2013-03-14 08:10:00,
2013-03-14 03:15:00,44.0,29.3,30.35,ESE,103,0.0,0.0,56,0.00,,CLR,0.00,VWS V14.01,2013-03-14 08:15:00,
2013-03-14 03:20:00,44.0,29.3,30.35,ESE,103,0.0,0.0,56,0.00,,CLR,0.00,VWS V14.01,2013-03-14 08:20:00,
2013-03-14 03:25:00,44.0,28.9,30.35,ESE,103,0.0,0.0,55,0.00,,CLR,0.00,VWS V14.01,2013-03-14 08:25:00,
2013-03-14 03:30:00,44.0,30.2,30.35,ESE,103,0.0,0.0,58,0.00,,CLR,0.00,VWS V14.01,2013-03-14 08:30:00,
2013-03-14 03:35:00,43.8,30.8,30.35,ESE,103,0.0,0.0,60,0.00,,CLR,0.00,VWS V14.01,2013-03-14 08:35:00,
2013-03-14 03:40:00,43.7,31.1,30.35,ESE,103,0.0,0.0,61,0.00,,CLR,0.00,VWS V14.01,2013-03-14 08:40:00,
2013-03-14 03:45:00,43.5,31.8,30.35,ESE,103,0.0,0.0,63,0.00,,CLR,0.00,VWS V14.01,2013-03-14 08:45:00,
2013-03-14 03:50:00,43.2,31.5,30.35,ESE,103,0.0,0.0,63,0.00,,CLR,0.00,VWS V14.01,2013-03-14 08:50:00,
2013-03-14 03:55:00,42.9,31.2,30.35,ESE,103,0.0,0.0,63,0.00,,CLR,0.00,VWS V14.01,2013-03-14 08:55:00,
2013-03-14 04:00:00,42.6,31.7,30.35,ESE,103,0.0,0.0,65,0.00,,CLR,0.00,VWS V14.01,2013-03-14 09:00:00,
2013-03-14 04:05:00,42.4,32.2,30.35,ESE,103,0.0,0.0,67,0.00,,CLR,0.00,VWS V14.01,2013-03-14 09:05:00,
2013-03-14 04:10:00,42.3,31.0,30.35,ESE,103,0.0,0.0,64,0.00,,CLR,0.00,VWS V14.01,2013-03-14 09:10:00,
2013-03-14 04:15:00,42.4,33.0,30.35,ESE,103,0.0,0.0,69,0.00,,CLR,0.00,VWS V14.01,2013-03-14 09:15:00,
2013-03-14 04:20:00,42.3,33.2,30.35,ESE,103,0.0,0.0,70,0.00,,CLR,0.00,VWS V14.01,2013-03-14 09:20:00,
2013-03-14 04:25:00,42.1,33.0,30.35,ESE,103,0.0,0.0,70,0.00,,CLR,0.00,VWS V14.01,2013-03-14 09:25:00,
2013-03-14 04:30:00,41.8,32.8,30.35,ESE,103,0.0,0.0,70,0.00,,CLR,0.00,VWS V14.01,2013-03-14 09:30:00,
2013-03-14 04:35:00,41.5,32.5,30.35,ESE,103,0.0,0.0,70,0.00,,CLR,0.00,VWS V14.01,2013-03-14 09:35:00,
2013-03-14 04:40:00,41.2,32.5,30.35,ESE,103,0.0,0.0,71,0.00,,CLR,0.00,VWS V14.01,2013-03-14 09:40:00,
2013-03-14 04:45:00,41.0,33.0,30.35,ESE,103,0.0,0.0,73,0.00,,CLR,0.00,VWS V14.01,2013-03-14 09:45:00,
2013-03-14 04:50:00,40.9,33.3,30.35,ESE,103,0.0,0.0,74,0.00,,CLR,0.00,VWS V14.01,2013-03-14 09:50:00,
2013-03-14 04:55:00,40.7,32.7,30.35,ESE,103,0.0,0.0,73,0.00,,CLR,0.00,VWS V14.01,2013-03-14 09:55:00,
2013-03-14 05:00:00,40.6,33.0,30.35,ESE,103,0.0,0.0,74,0.00,,CLR,0.00,VWS V14.01,2013-03-14 10:00:00,
2013-03-14 05:05:00,40.4,32.8,30.35,ESE,103,0.0,0.0,74,0.00,,CLR,0.00,VWS V14.01,2013-03-14 10:05:00,
2013-03-14 05:10:00,40.2,32.9,30.35,ESE,103,0.0,0.0,75,0.00,,CLR,0.00,VWS V14.01,2013-03-14 10:10:00,
2013-03-14 05:15:00,39.9,32.6,30.35,ESE,103,0.0,0.0,75,0.00,,CLR,0.00,VWS V14.01,2013-03-14 10:15:00,
2013-03-14 05:20:00,39.7,32.8,30.35,ESE,103,0.0,0.0,76,0.00,,CLR,0.00,VWS V14.01,2013-03-14 10:20:00,
2013-03-14 05:25:00,39.5,33.2,30.35,ESE,103,0.0,0.0,78,0.00,,CLR,0.00,VWS V14.01,2013-03-14 10:25:00,
2013-03-14 05:30:00,39.5,33.8,30.36,ESE,103,0.0,0.0,80,0.00,,CLR,0.00,VWS V14.01,2013-03-14 10:30:00,
2013-03-14 05:35:00,39.6,34.0,30.36,ESE,103,0.0,0.0,80,0.00,,CLR,0.00,VWS V14.01,2013-03-14 10:35:00,
2013-03-14 05:40:00,39.5,33.5,30.36,ESE,103,0.0,0.0,79,0.00,,CLR,0.00,VWS V14.01,2013-03-14 10:40:00,
2013-03-14 05:45:00,39.5,33.5,30.36,ESE,103,0.0,0.0,79,0.00,,CLR,0.00,VWS V14.01,2013-03-14 10:45:00,
2013-03-14 05:50:00,39.5,33.8,30.36,ESE,103,0.0,0.0,80,0.00,,CLR,0.00,VWS V14.01,2013-03-14 10:50:00,
2013-03-14 05:55:00,39.5,33.8,30.36,ESE,103,0.0,0.0,80,0.00,,CLR,0.00,VWS V14.01,2013-03-14 10:55:00,
2013-03-14 06:00:00,39.4,33.4,30.36,ESE,103,0.0,0.0,79,0.00,,CLR,0.00,VWS V14.01,2013-03-14 11:00:00,
2013-03-14 06:05:00,39.4,33.4,30.37,ESE,103,0.0,0.0,79,0.00,,CLR,0.00,VWS V14.01,2013-03-14 11:05:00,
2013-03-14 06:10:00,39.3,33.7,30.37,ESE,103,0.0,0.0,80,0.00,,CLR,0.00,VWS V14.01,2013-03-14 11:10:00,
2013-03-14 06:15:00,39.2,33.2,30.37,ESE,103,0.0,0.0,79,0.00,,CLR,0.00,VWS V14.01,2013-03-14 11:15:00,
2013-03-14 06:20:00,39.2,32.9,30.37,ESE,103,0.0,0.0,78,0.00,,CLR,0.00,VWS V14.01,2013-03-14 11:20:00,
2013-03-14 06:25:00,39.1,33.2,30.38,ESE,103,0.0,0.0,79,0.00,,CLR,0.00,VWS V14.01,2013-03-14 11:25:00,
2013-03-14 06:30:00,39.0,33.4,30.38,ESE,103,0.0,0.0,80,0.00,,CLR,0.00,VWS V14.01,2013-03-14 11:30:00,
2013-03-14 06:35:00,38.9,33.6,30.38,ESE,103,0.0,0.0,81,0.00,,CLR,0.00,VWS V14.01,2013-03-14 11:35:00,
2013-03-14 06:40:00,38.9,33.6,30.38,ESE,103,0.0,0.0,81,0.00,,CLR,0.00,VWS V14.01,2013-03-14 11:40:00,
2013-03-14 06:45:00,38.8,33.5,30.38,ESE,103,0.0,0.0,81,0.00,,CLR,0.00,VWS V14.01,2013-03-14 11:45:00,
2013-03-14 06:50:00,38.7,33.4,30.39,ESE,103,0.0,0.0,81,0.00,,CLR,0.00,VWS V14.01,2013-03-14 11:50:00,
2013-03-14 06:55:00,38.5,33.2,30.39,ESE,103,0.0,0.0,81,0.00,,CLR,0.00,VWS V14.01,2013-03-14 11:55:00,
2013-03-14 07:00:00,38.3,33.0,30.39,ESE,103,0.0,0.0,81,0.00,,CLR,0.00,VWS V14.01,2013-03-14 12:00:00,
2013-03-14 07:05:00,38.0,33.0,30.39,ESE,103,0.0,0.0,82,0.00,,CLR,0.00,VWS V14.01,2013-03-14 12:05:00,
2013-03-14 07:10:00,37.8,32.8,30.39,ESE,103,0.0,0.0,82,0.00,,CLR,0.00,VWS V14.01,2013-03-14 12:10:00,
2013-03-14 07:15:00,37.7,33.0,30.39,ESE,103,0.0,0.0,83,0.00,,CLR,0.00,VWS V14.01,2013-03-14 12:15:00,
2013-03-14 07:20:00,37.7,32.7,30.39,ESE,103,0.0,0.0,82,0.00,,CLR,0.00,VWS V14.01,2013-03-14 12:20:00,
2013-03-14 07:25:00,37.9,32.6,30.39,ESE,103,0.0,0.0,81,0.00,,CLR,0.00,VWS V14.01,2013-03-14 12:25:00,
2013-03-14 07:30:00,38.2,32.9,30.40,ESE,103,0.0,0.0,81,0.00,,CLR,0.00,VWS V14.01,2013-03-14 12:30:00,
2013-03-14 07:35:00,38.4,32.8,30.40,ESE,103,0.0,0.0,80,0.00,,CLR,0.00,VWS V14.01,2013-03-14 12:35:00,
2013-03-14 07:40:00,38.8,32.9,30.40,ESE,103,0.0,0.0,79,0.00,,CLR,0.00,VWS V14.01,2013-03-14 12:40:00,
2013-03-14 07:45:00,39.2,33.2,30.40,ESE,103,0.0,0.0,79,0.00,,CLR,0.00,VWS V14.01,2013-03-14 12:45:00,
2013-03-14 07:50:00,39.6,33.3,30.40,ESE,103,0.0,0.0,78,0.00,,CLR,0.00,VWS V14.01,2013-03-14 12:50:00,
2013-03-14 07:55:00,40.2,33.2,30.41,ESE,103,0.0,0.0,76,0.00,,CLR,0.00,VWS V14.01,2013-03-14 12:55:00,
2013-03-14 08:00:00,40.6,33.3,30.41,ESE,103,0.0,0.0,75,0.00,,CLR,0.00,VWS V14.01,2013-03-14 13:00:00,
2013-03-14 08:05:00,41.0,33.4,30.41,ESE,103,0.0,0.0,74,0.00,,CLR,0.00,VWS V14.01,2013-03-14 13:05:00,
2013-03-14 08:10:00,41.6,33.9,30.42,ENE,70,0.0,0.0,74,0.00,,CLR,0.00,VWS V14.01,2013-03-14 13:10:00,
2013-03-14 08:15:00,42.1,33.7,30.42,ENE,70,0.0,0.0,72,0.00,,CLR,0.00,VWS V14.01,2013-03-14 13:15:00,
2013-03-14 08:20:00,42.6,34.2,30.42,ENE,78,0.0,3.0,72,0.00,,CLR,0.00,VWS V14.01,2013-03-14 13:20:00,
2013-03-14 08:25:00,43.2,34.5,30.42,ENE,78,1.5,1.5,71,0.00,,CLR,0.00,VWS V14.01,2013-03-14 13:25:00,
2013-03-14 08:30:00,43.9,34.8,30.42,ESE,105,1.5,3.0,70,0.00,,CLR,0.00,VWS V14.01,2013-03-14 13:30:00,
2013-03-14 08:35:00,44.7,34.8,30.43,East,95,3.0,7.5,68,0.00,,CLR,0.00,VWS V14.01,2013-03-14 13:35:00,
2013-03-14 08:40:00,45.4,34.3,30.43,East,98,0.0,9.0,65,0.00,,CLR,0.00,VWS V14.01,2013-03-14 13:40:00,
2013-03-14 08:45:00,46.0,34.5,30.43,ESE,107,0.0,4.5,64,0.00,,CLR,0.00,VWS V14.01,2013-03-14 13:45:00,
2013-03-14 08:50:00,46.7,34.0,30.43,ESE,109,1.5,4.5,61,0.00,,CLR,0.00,VWS V14.01,2013-03-14 13:50:00,
2013-03-14 08:55:00,47.2,34.0,30.43,East,91,0.0,4.5,60,0.00,,CLR,0.00,VWS V14.01,2013-03-14 13:55:00,
2013-03-14 09:00:00,47.8,34.2,30.43,East,95,7.5,7.5,59,0.00,,CLR,0.00,VWS V14.01,2013-03-14 14:00:00,
2013-03-14 09:04:00,48.2,34.6,30.43,ESE,102,3.0,6.0,59,0.00,,CLR,0.00,VWS V14.01,2013-03-14 14:04:00,
2013-03-14 09:09:00,48.7,33.7,30.43,ESE,103,10.5,10.5,56,0.00,,CLR,0.00,VWS V14.01,2013-03-14 14:09:00,
2013-03-14 09:14:00,49.0,33.1,30.43,East,95,4.5,9.0,54,0.00,,CLR,0.00,VWS V14.01,2013-03-14 14:14:00,
2013-03-14 09:19:00,49.5,34.5,30.43,ESE,117,4.5,4.5,56,0.00,,CLR,0.00,VWS V14.01,2013-03-14 14:19:00,
2013-03-14 09:24:00,50.1,33.7,30.43,ESE,115,1.5,9.0,53,0.00,,CLR,0.00,VWS V14.01,2013-03-14 14:24:00,
2013-03-14 09:29:00,50.4,32.0,30.43,ESE,107,4.5,10.5,49,0.00,,CLR,0.00,VWS V14.01,2013-03-14 14:29:00,
2013-03-14 09:34:00,50.8,31.8,30.43,SE,142,3.0,9.0,48,0.00,,CLR,0.00,VWS V14.01,2013-03-14 14:34:00,
2013-03-14 09:39:00,51.3,33.3,30.43,East,80,1.5,4.5,50,0.00,,CLR,0.00,VWS V14.01,2013-03-14 14:39:00,
2013-03-14 09:44:00,52.0,33.5,30.43,SE,124,0.0,4.5,49,0.00,,CLR,0.00,VWS V14.01,2013-03-14 14:44:00,
2013-03-14 09:49:00,52.6,34.0,30.43,East,96,3.0,4.5,49,0.00,,CLR,0.00,VWS V14.01,2013-03-14 14:49:00,
2013-03-14 09:54:00,52.8,33.7,30.43,East,100,0.0,10.5,48,0.00,,CLR,0.00,VWS V14.01,2013-03-14 14:54:00,
2013-03-14 09:59:00,53.1,32.9,30.43,East,96,4.5,4.5,46,0.00,,CLR,0.00,VWS V14.01,2013-03-14 14:59:00,
2013-03-14 10:04:00,53.5,34.3,30.43,East,84,0.0,7.5,48,0.00,,CLR,0.00,VWS V14.01,2013-03-14 15:04:00,
2013-03-14 10:09:00,54.1,33.8,30.43,ESE,112,3.0,6.0,46,0.00,,CLR,0.00,VWS V14.01,2013-03-14 15:09:00,
2013-03-14 10:14:00,54.2,33.3,30.43,SSE,163,1.5,9.0,45,0.00,,CLR,0.00,VWS V14.01,2013-03-14 15:14:00,
2013-03-14 10:19:00,54.4,33.0,30.43,SSE,159,0.0,7.5,44,0.00,,CLR,0.00,VWS V14.01,2013-03-14 15:19:00,
2013-03-14 10:24:00,54.5,33.6,30.43,ESE,119,0.0,6.0,45,0.00,,CLR,0.00,VWS V14.01,2013-03-14 15:24:00,
2013-03-14 10:29:00,54.9,32.8,30.43,ESE,117,3.0,4.5,43,0.00,,CLR,0.00,VWS V14.01,2013-03-14 15:29:00,
2013-03-14 10:34:00,55.4,33.9,30.43,South,171,7.5,7.5,44,0.00,,CLR,0.00,VWS V14.01,2013-03-14 15:34:00,
2013-03-14 10:39:00,55.8,33.1,30.43,SE,130,0.0,3.0,42,0.00,,CLR,0.00,VWS V14.01,2013-03-14 15:39:00,
2013-03-14 10:44:00,56.1,32.7,30.43,SSW,203,3.0,10.5,41,0.00,,CLR,0.00,VWS V14.01,2013-03-14 15:44:00,
2013-03-14 10:49:00,55.8,32.5,30.43,SE,134,4.5,9.0,41,0.00,,CLR,0.00,VWS V14.01,2013-03-14 15:49:00,
2013-03-14 10:54:00,55.8,31.9,30.43,SSW,205,0.0,6.0,40,0.00,,CLR,0.00,VWS V14.01,2013-03-14 15:54:00,
2013-03-14 10:59:00,55.9,32.6,30.43,SE,127,0.0,10.5,41,0.00,,CLR,0.00,VWS V14.01,2013-03-14 15:59:00,
2013-03-14 11:04:00,56.5,33.1,30.43,SSW,196,7.5,10.5,41,0.00,,CLR,0.00,VWS V14.01,2013-03-14 16:04:00,
2013-03-14 11:09:00,56.6,32.6,30.43,ESE,117,1.5,3.0,40,0.00,,CLR,0.00,VWS V14.01,2013-03-14 16:09:00,
2013-03-14 11:14:00,57.2,32.5,30.42,SSE,161,4.5,7.5,39,0.00,,CLR,0.00,VWS V14.01,2013-03-14 16:14:00,
2013-03-14 11:19:00,57.6,34.7,30.43,SW,227,6.0,6.0,42,0.00,,CLR,0.00,VWS V14.01,2013-03-14 16:19:00,
2013-03-14 11:24:00,58.2,34.6,30.42,ESE,108,3.0,4.5,41,0.00,,CLR,0.00,VWS V14.01,2013-03-14 16:24:00,
2013-03-14 11:29:00,58.5,34.3,30.42,SSW,199,9.0,9.0,40,0.00,,CLR,0.00,VWS V14.01,2013-03-14 16:29:00,
2013-03-14 11:34:00,58.5,34.9,30.42,South,191,3.0,4.5,41,0.00,,CLR,0.00,VWS V14.01,2013-03-14 16:34:00,
2013-03-14 11:39:00,58.4,32.9,30.42,South,191,4.5,7.5,38,0.00,,CLR,0.00,VWS V14.01,2013-03-14 16:39:00,
2013-03-14 11:44:00,58.5,33.7,30.42,South,182,1.5,4.5,39,0.00,,CLR,0.00,VWS V14.01,2013-03-14 16:44:00,
2013-03-14 11:49:00,59.0,34.1,30.42,SSW,193,10.5,10.5,39,0.00,,CLR,0.00,VWS V14.01,2013-03-14 16:49:00,
2013-03-14 11:54:00,59.1,32.9,30.42,SSW,192,0.0,1.5,37,0.00,,CLR,0.00,VWS V14.01,2013-03-14 16:54:00,
2013-03-14 11:59:00,59.2,33.0,30.42,SE,146,0.0,6.0,37,0.00,,CLR,0.00,VWS V14.01,2013-03-14 16:59:00,
2013-03-14 12:04:00,59.3,33.0,30.41,South,179,0.0,4.5,37,0.00,,CLR,0.00,VWS V14.01,2013-03-14 17:04:00,
2013-03-14 12:09:00,59.9,33.6,30.41,SE,144,1.5,7.5,37,0.00,,CLR,0.00,VWS V14.01,2013-03-14 17:09:00,
2013-03-14 12:14:00,60.2,33.8,30.41,ESE,103,0.0,6.0,37,0.00,,CLR,0.00,VWS V14.01,2013-03-14 17:14:00,
2013-03-14 12:19:00,60.4,31.9,30.41,South,185,4.5,6.0,34,0.00,,CLR,0.00,VWS V14.01,2013-03-14 17:19:00,
2013-03-14 12:24:00,60.8,34.4,30.41,SE,130,1.5,3.0,37,0.00,,CLR,0.00,VWS V14.01,2013-03-14 17:24:00,
2013-03-14 12:29:00,61.5,34.3,30.40,NNE,33,3.0,6.0,36,0.00,,CLR,0.00,VWS V14.01,2013-03-14 17:29:00,
2013-03-14 12:34:00,61.7,33.1,30.40,ENE,69,0.0,3.0,34,0.00,,CLR,0.00,VWS V14.01,2013-03-14 17:34:00,
2013-03-14 12:39:00,62.1,31.9,30.40,East,81,3.0,4.5,32,0.00,,CLR,0.00,VWS V14.01,2013-03-14 17:39:00,
2013-03-14 12:44:00,62.4,35.1,30.39,ESE,109,3.0,4.5,36,0.00,,CLR,0.00,VWS V14.01,2013-03-14 17:44:00,
2013-03-14 12:49:00,62.6,33.1,30.39,ESE,107,0.0,1.5,33,0.00,,CLR,0.00,VWS V14.01,2013-03-14 17:49:00,
2013-03-14 12:54:00,62.8,34.8,30.39,ESE,103,1.5,3.0,35,0.00,,CLR,0.00,VWS V14.01,2013-03-14 17:54:00,
2013-03-14 12:59:00,62.9,32.6,30.38,SSE,152,0.0,6.0,32,0.00,,CLR,0.00,VWS V14.01,2013-03-14 17:59:00,
2013-03-14 13:04:00,62.8,33.3,30.38,SW,227,0.0,3.0,33,0.00,,CLR,0.00,VWS V14.01,2013-03-14 18:04:00,
2013-03-14 13:09:00,63.3,33.7,30.38,East,98,0.0,7.5,33,0.00,,CLR,0.00,VWS V14.01,2013-03-14 18:09:00,
2013-03-14 13:14:00,63.8,33.4,30.38,SE,135,0.0,3.0,32,0.00,,CLR,0.00,VWS V14.01,2013-03-14 18:14:00,
2013-03-14 13:19:00,63.8,32.6,30.38,ENE,61,0.0,4.5,31,0.00,,CLR,0.00,VWS V14.01,2013-03-14 18:19:00,
2013-03-14 13:24:00,63.3,32.2,30.37,SSW,193,3.0,6.0,31,0.00,,CLR,0.00,VWS V14.01,2013-03-14 18:24:00,
2013-03-14 13:29:00,63.2,33.6,30.37,SSE,164,0.0,3.0,33,0.00,,CLR,0.00,VWS V14.01,2013-03-14 18:29:00,
2013-03-14 13:34:00,64.1,34.4,30.37,East,82,0.0,3.0,33,0.00,,CLR,0.00,VWS V14.01,2013-03-14 18:34:00,
2013-03-14 13:39:00,64.8,33.5,30.37,East,100,3.0,3.0,31,0.00,,CLR,0.00,VWS V14.01,2013-03-14 18:39:00,
2013-03-14 13:44:00,64.5,32.4,30.37,NE,42,0.0,6.0,30,0.00,,CLR,0.00,VWS V14.01,2013-03-14 18:44:00,
2013-03-14 13:49:00,64.4,33.9,30.36,NE,37,3.0,6.0,32,0.00,,CLR,0.00,VWS V14.01,2013-03-14 18:49:00,
2013-03-14 13:54:00,64.5,33.2,30.36,North,355,6.0,6.0,31,0.00,,CLR,0.00,VWS V14.01,2013-03-14 18:54:00,
2013-03-14 13:59:00,64.4,34.7,30.36,North,350,7.5,7.5,33,0.00,,CLR,0.00,VWS V14.01,2013-03-14 18:59:00,
2013-03-14 14:04:00,64.5,33.2,30.36,NNW,340,1.5,3.0,31,0.00,,CLR,0.00,VWS V14.01,2013-03-14 19:04:00,
2013-03-14 14:09:00,64.5,33.2,30.35,NW,309,0.0,4.5,31,0.00,,CLR,0.00,VWS V14.01,2013-03-14 19:09:00,
2013-03-14 14:14:00,64.9,34.4,30.35,WNW,292,0.0,0.0,32,0.00,,CLR,0.00,VWS V14.01,2013-03-14 19:14:00,
2013-03-14 14:19:00,65.9,36.0,30.35,WNW,290,3.0,3.0,33,0.00,,CLR,0.00,VWS V14.01,2013-03-14 19:19:00,
2013-03-14 14:24:00,66.1,35.4,30.34,SSW,192,1.5,9.0,32,0.00,,CLR,0.00,VWS V14.01,2013-03-14 19:24:00,
2013-03-14 14:29:00,66.0,34.5,30.34,SE,139,0.0,3.0,31,0.00,,CLR,0.00,VWS V14.01,2013-03-14 19:29:00,
2013-03-14 14:34:00,65.9,33.6,30.33,NNE,26,0.0,9.0,30,0.00,,CLR,0.00,VWS V14.01,2013-03-14 19:34:00,
2013-03-14 14:39:00,66.3,34.8,30.33,NNE,24,0.0,1.5,31,0.00,,CLR,0.00,VWS V14.01,2013-03-14 19:39:00,
2013-03-14 14:44:00,66.8,36.0,30.33,NNE,24,0.0,1.5,32,0.00,,CLR,0.00,VWS V14.01,2013-03-14 19:44:00,
2013-03-14 14:49:00,66.6,35.0,30.33,NNW,332,10.5,10.5,31,0.00,,CLR,0.00,VWS V14.01,2013-03-14 19:49:00,
2013-03-14 14:54:00,66.7,35.1,30.33,South,187,4.5,7.5,31,0.00,,CLR,0.00,VWS V14.01,2013-03-14 19:54:00,
2013-03-14 14:59:00,66.7,34.3,30.32,SSW,195,6.0,9.0,30,0.00,,CLR,0.00,VWS V14.01,2013-03-14 19:59:00,
2013-03-14 15:04:00,66.8,34.4,30.32,SSW,209,0.0,4.5,30,0.00,,CLR,0.00,VWS V14.01,2013-03-14 20:04:00,
2013-03-14 15:09:00,67.1,33.8,30.32,SSW,198,0.0,3.0,29,0.00,,CLR,0.00,VWS V14.01,2013-03-14 20:09:00,
2013-03-14 15:14:00,67.4,35.7,30.31,SE,145,0.0,1.5,31,0.00,,CLR,0.00,VWS V14.01,2013-03-14 20:14:00,
2013-03-14 15:19:00,67.6,34.2,30.31,SSE,154,0.0,3.0,29,0.00,,CLR,0.00,VWS V14.01,2013-03-14 20:19:00,
2013-03-14 15:24:00,67.5,35.0,30.31,SSE,154,1.5,3.0,30,0.00,,CLR,0.00,VWS V14.01,2013-03-14 20:24:00,
2013-03-14 15:29:00,67.9,34.5,30.31,NNE,32,0.0,4.5,29,0.00,,CLR,0.00,VWS V14.01,2013-03-14 20:29:00,
2013-03-14 15:34:00,67.9,34.5,30.31,West,260,0.0,7.5,29,0.00,,CLR,0.00,VWS V14.01,2013-03-14 20:34:00,
2013-03-14 15:39:00,67.9,34.5,30.31,West,279,3.0,7.5,29,0.00,,CLR,0.00,VWS V14.01,2013-03-14 20:39:00,
2013-03-14 15:44:00,67.8,33.5,30.31,WNW,283,0.0,0.0,28,0.00,,CLR,0.00,VWS V14.01,2013-03-14 20:44:00,
2013-03-14 15:49:00,68.0,35.4,30.31,WNW,289,0.0,0.0,30,0.00,,CLR,0.00,VWS V14.01,2013-03-14 20:49:00,
2013-03-14 15:54:00,68.2,34.8,30.31,NW,309,0.0,3.0,29,0.00,,CLR,0.00,VWS V14.01,2013-03-14 20:54:00,
2013-03-14 15:59:00,68.5,35.9,30.30,NW,313,6.0,6.0,30,0.00,,CLR,0.00,VWS V14.01,2013-03-14 20:59:00,
2013-03-14 16:04:00,68.4,35.8,30.30,NW,316,3.0,3.0,30,0.00,,CLR,0.00,VWS V14.01,2013-03-14 21:04:00,
2013-03-14 16:09:00,68.8,36.1,30.31,WNW,296,4.5,6.0,30,0.00,,CLR,0.00,VWS V14.01,2013-03-14 21:09:00,
2013-03-14 16:14:00,68.6,36.0,30.30,NNW,346,0.0,7.5,30,0.00,,CLR,0.00,VWS V14.01,2013-03-14 21:14:00,
2013-03-14 16:19:00,68.7,35.2,30.30,NNE,16,9.0,9.0,29,0.00,,CLR,0.00,VWS V14.01,2013-03-14 21:19:00,
2013-03-14 16:24:00,68.6,34.2,30.30,NNW,327,1.5,6.0,28,0.00,,CLR,0.00,VWS V14.01,2013-03-14 21:24:00,
2013-03-14 16:29:00,68.6,34.2,30.30,North,9,4.5,7.5,28,0.00,,CLR,0.00,VWS V14.01,2013-03-14 21:29:00,
2013-03-14 16:34:00,69.0,35.5,30.30,ENE,60,4.5,7.5,29,0.00,,CLR,0.00,VWS V14.01,2013-03-14 21:34:00,
2013-03-14 16:39:00,69.2,34.7,30.30,NNW,338,6.0,6.0,28,0.00,,CLR,0.00,VWS V14.01,2013-03-14 21:39:00,
2013-03-14 16:44:00,69.3,34.8,30.29,North,5,0.0,3.0,28,0.00,,CLR,0.00,VWS V14.01,2013-03-14 21:44:00,
2013-03-14 16:49:00,69.4,34.9,30.29,NNW,329,3.0,10.5,28,0.00,,CLR,0.00,VWS V14.01,2013-03-14 21:49:00,
2013-03-14 16:54:00,69.0,35.5,30.29,NNW,328,1.5,3.0,29,0.00,,CLR,0.00,VWS V14.01,2013-03-14 21:54:00,
2013-03-14 16:59:00,69.1,35.5,30.29,NW,313,0.0,6.0,29,0.00,,CLR,0.00,VWS V14.01,2013-03-14 21:59:00,
2013-03-14 17:04:00,69.2,35.6,30.29,NNW,335,0.0,3.0,29,0.00,,CLR,0.00,VWS V14.01,2013-03-14 22:04:00,
2013-03-14 17:09:00,69.2,35.6,30.29,NW,321,3.0,9.0,29,0.00,,CLR,0.00,VWS V14.01,2013-03-14 22:09:00,
2013-03-14 17:14:00,69.2,35.6,30.29,NNW,339,1.5,6.0,29,0.00,,CLR,0.00,VWS V14.01,2013-03-14 22:14:00,
2013-03-14 17:19:00,69.3,35.7,30.29,NW,325,3.0,9.0,29,0.00,,CLR,0.00,VWS V14.01,2013-03-14 22:19:00,
2013-03-14 17:24:00,69.0,34.6,30.28,NW,322,0.0,4.5,28,0.00,,CLR,0.00,VWS V14.01,2013-03-14 22:24:00,
2013-03-14 17:29:00,69.1,35.5,30.28,NW,313,3.0,6.0,29,0.00,,CLR,0.00,VWS V14.01,2013-03-14 22:29:00,
2013-03-14 17:34:00,68.9,34.5,30.28,WNW,296,1.5,10.5,28,0.00,,CLR,0.00,VWS V14.01,2013-03-14 22:34:00,
2013-03-14 17:39:00,68.7,34.3,30.28,NNW,340,0.0,6.0,28,0.00,,CLR,0.00,VWS V14.01,2013-03-14 22:39:00,
2013-03-14 17:44:00,69.0,35.5,30.28,NW,321,0.0,1.5,29,0.00,,CLR,0.00,VWS V14.01,2013-03-14 22:44:00,
2013-03-14 17:49:00,69.1,34.7,30.28,NW,317,0.0,3.0,28,0.00,,CLR,0.00,VWS V14.01,2013-03-14 22:49:00,
2013-03-14 17:54:00,68.9,34.5,30.28,WNW,290,3.0,7.5,28,0.00,,CLR,0.00,VWS V14.01,2013-03-14 22:54:00,
2013-03-14 17:59:00,68.8,35.3,30.28,WNW,292,0.0,3.0,29,0.00,,CLR,0.00,VWS V14.01,2013-03-14 22:59:00,
2013-03-14 18:04:00,68.8,34.4,30.28,NNW,333,0.0,6.0,28,0.00,,CLR,0.00,VWS V14.01,2013-03-14 23:04:00,
2013-03-14 18:09:00,68.9,36.2,30.28,NW,324,1.5,3.0,30,0.00,,CLR,0.00,VWS V14.01,2013-03-14 23:09:00,
2013-03-14 18:14:00,68.7,35.2,30.28,WNW,292,0.0,3.0,29,0.00,,CLR,0.00,VWS V14.01,2013-03-14 23:14:00,
2013-03-14 18:19:00,68.6,34.2,30.27,West,265,1.5,3.0,28,0.00,,CLR,0.00,VWS V14.01,2013-03-14 23:19:00,
2013-03-14 18:24:00,68.3,34.8,30.27,WNW,284,1.5,6.0,29,0.00,,CLR,0.00,VWS V14.01,2013-03-14 23:24:00,
2013-03-14 18:29:00,68.2,34.8,30.27,WNW,296,3.0,3.0,29,0.00,,CLR,0.00,VWS V14.01,2013-03-14 23:29:00,
2013-03-14 18:34:00,68.1,34.7,30.27,WNW,288,0.0,1.5,29,0.00,,CLR,0.00,VWS V14.01,2013-03-14 23:34:00,
2013-03-14 18:39:00,68.0,34.6,30.27,WNW,288,0.0,0.0,29,0.00,,CLR,0.00,VWS V14.01,2013-03-14 23:39:00,
2013-03-14 18:44:00,68.0,35.4,30.27,WNW,288,1.5,1.5,30,0.00,,CLR,0.00,VWS V14.01,2013-03-14 23:44:00,
2013-03-14 18:49:00,67.9,36.2,30.28,WNW,288,0.0,0.0,31,0.00,,CLR,0.00,VWS V14.01,2013-03-14 23:49:00,
2013-03-14 18:54:00,67.7,36.0,30.28,WNW,288,0.0,0.0,31,0.00,,CLR,0.00,VWS V14.01,2013-03-14 23:54:00,
2013-03-14 18:59:00,67.2,35.6,30.28,WNW,288,0.0,0.0,31,0.00,,CLR,0.00,VWS V14.01,2013-03-14 23:59:00,
2013-03-14 19:04:00,66.7,35.9,30.28,WNW,288,0.0,0.0,32,0.00,,CLR,0.00,VWS V14.01,2013-03-15 00:04:00,
2013-03-14 19:09:00,66.1,35.4,30.28,WNW,288,0.0,0.0,32,0.00,,CLR,0.00,VWS V14.01,2013-03-15 00:09:00,
2013-03-14 19:14:00,65.6,36.5,30.28,WNW,288,0.0,0.0,34,0.00,,CLR,0.00,VWS V14.01,2013-03-15 00:14:00,
2013-03-14 19:19:00,65.0,36.7,30.28,WNW,288,0.0,0.0,35,0.00,,CLR,0.00,VWS V14.01,2013-03-15 00:19:00,
2013-03-14 19:24:00,64.3,37.5,30.28,WNW,288,0.0,0.0,37,0.00,,CLR,0.00,VWS V14.01,2013-03-15 00:24:00,
2013-03-14 19:29:00,63.6,36.9,30.28,WNW,288,0.0,0.0,37,0.00,,CLR,0.00,VWS V14.01,2013-03-15 00:29:00,
2013-03-14 19:34:00,63.0,39.0,30.28,WNW,288,0.0,0.0,41,0.00,,CLR,0.00,VWS V14.01,2013-03-15 00:34:00,
2013-03-14 19:39:00,62.3,38.9,30.28,WNW,288,0.0,0.0,42,0.00,,CLR,0.00,VWS V14.01,2013-03-15 00:39:00,
2013-03-14 19:44:00,61.5,39.4,30.28,WNW,288,0.0,0.0,44,0.00,,CLR,0.00,VWS V14.01,2013-03-15 00:44:00,
2013-03-14 19:49:00,60.9,39.4,30.28,WNW,288,0.0,0.0,45,0.00,,CLR,0.00,VWS V14.01,2013-03-15 00:49:00,
2013-03-14 19:54:00,60.4,39.5,30.28,WNW,288,0.0,0.0,46,0.00,,CLR,0.00,VWS V14.01,2013-03-15 00:54:00,
2013-03-14 19:59:00,59.8,39.5,30.28,WNW,288,0.0,0.0,47,0.00,,CLR,0.00,VWS V14.01,2013-03-15 00:59:00,
2013-03-14 20:04:00,59.2,40.1,30.28,WNW,288,0.0,0.0,49,0.00,,CLR,0.00,VWS V14.01,2013-03-15 01:04:00,
2013-03-14 20:09:00,58.7,39.6,30.28,WNW,288,0.0,0.0,49,0.00,,CLR,0.00,VWS V14.01,2013-03-15 01:09:00,
2013-03-14 20:14:00,58.3,39.2,30.28,WNW,288,0.0,0.0,49,0.00,,CLR,0.00,VWS V14.01,2013-03-15 01:14:00,
2013-03-14 20:19:00,58.0,39.0,30.28,WNW,288,0.0,0.0,49,0.00,,CLR,0.00,VWS V14.01,2013-03-15 01:19:00,
2013-03-14 20:24:00,57.7,38.7,30.28,WNW,288,0.0,0.0,49,0.00,,CLR,0.00,VWS V14.01,2013-03-15 01:24:00,
2013-03-14 20:29:00,57.4,39.9,30.28,WNW,288,0.0,0.0,52,0.00,,CLR,0.00,VWS V14.01,2013-03-15 01:29:00,
2013-03-14 20:34:00,57.1,39.7,30.29,WNW,288,0.0,0.0,52,0.00,,CLR,0.00,VWS V14.01,2013-03-15 01:34:00,
2013-03-14 20:39:00,56.8,39.9,30.29,WNW,288,0.0,0.0,53,0.00,,CLR,0.00,VWS V14.01,2013-03-15 01:39:00,
2013-03-14 20:44:00,56.4,40.5,30.29,WNW,288,0.0,0.0,55,0.00,,CLR,0.00,VWS V14.01,2013-03-15 01:44:00,
2013-03-14 20:49:00,56.1,42.0,30.29,WNW,288,0.0,0.0,59,0.00,,CLR,0.00,VWS V14.01,2013-03-15 01:49:00,
2013-03-14 20:54:00,55.9,44.3,30.29,WNW,288,0.0,0.0,65,0.00,,CLR,0.00,VWS V14.01,2013-03-15 01:54:00,
2013-03-14 20:59:00,55.5,43.1,30.29,WNW,288,0.0,0.0,63,0.00,,CLR,0.00,VWS V14.01,2013-03-15 01:59:00,
2013-03-14 21:04:00,55.2,43.2,30.29,WNW,288,0.0,0.0,64,0.00,,CLR,0.00,VWS V14.01,2013-03-15 02:04:00,
2013-03-14 21:09:00,55.0,41.4,30.29,WNW,288,0.0,0.0,60,0.00,,CLR,0.00,VWS V14.01,2013-03-15 02:09:00,
2013-03-14 21:14:00,54.9,41.7,30.30,WNW,288,0.0,0.0,61,0.00,,CLR,0.00,VWS V14.01,2013-03-15 02:14:00,
2013-03-14 21:19:00,54.9,41.7,30.30,WNW,288,0.0,0.0,61,0.00,,CLR,0.00,VWS V14.01,2013-03-15 02:19:00,
2013-03-14 21:24:00,55.2,40.2,30.30,WNW,286,0.0,1.5,57,0.00,,CLR,0.00,VWS V14.01,2013-03-15 02:24:00,
2013-03-14 21:29:00,55.6,39.2,30.30,WNW,286,0.0,1.5,54,0.00,,CLR,0.00,VWS V14.01,2013-03-15 02:29:00,
2013-03-14 21:34:00,56.0,39.6,30.30,West,281,0.0,3.0,54,0.00,,CLR,0.00,VWS V14.01,2013-03-15 02:34:00,
2013-03-14 21:39:00,56.3,39.9,30.30,West,281,0.0,0.0,54,0.00,,CLR,0.00,VWS V14.01,2013-03-15 02:39:00,
2013-03-14 21:44:00,56.4,40.0,30.30,West,281,0.0,1.5,54,0.00,,CLR,0.00,VWS V14.01,2013-03-15 02:44:00,
2013-03-14 21:49:00,56.5,40.1,30.30,West,281,0.0,1.5,54,0.00,,CLR,0.00,VWS V14.01,2013-03-15 02:49:00,
2013-03-14 21:54:00,56.6,40.6,30.30,West,261,1.5,6.0,55,0.00,,CLR,0.00,VWS V14.01,2013-03-15 02:54:00,
2013-03-14 21:59:00,56.7,41.7,30.31,West,265,0.0,4.5,57,0.00,,CLR,0.00,VWS V14.01,2013-03-15 02:59:00,
2013-03-14 22:04:00,56.8,41.8,30.31,WNW,288,0.0,4.5,57,0.00,,CLR,0.00,VWS V14.01,2013-03-15 03:04:00,
2013-03-14 22:09:00,56.6,41.6,30.31,West,275,0.0,0.0,57,0.00,,CLR,0.00,VWS V14.01,2013-03-15 03:09:00,
2013-03-14 22:14:00,56.4,41.8,30.31,WSW,250,0.0,4.5,58,0.00,,CLR,0.00,VWS V14.01,2013-03-15 03:14:00,
2013-03-14 22:19:00,56.2,42.1,30.31,WSW,242,0.0,1.5,59,0.00,,CLR,0.00,VWS V14.01,2013-03-15 03:19:00,
2013-03-14 22:24:00,56.2,42.1,30.31,West,263,6.0,7.5,59,0.00,,CLR,0.00,VWS V14.01,2013-03-15 03:24:00,
2013-03-14 22:29:00,56.1,42.4,30.31,WSW,255,0.0,1.5,60,0.00,,CLR,0.00,VWS V14.01,2013-03-15 03:29:00,
2013-03-14 22:34:00,55.9,42.2,30.31,WSW,237,0.0,3.0,60,0.00,,CLR,0.00,VWS V14.01,2013-03-15 03:34:00,
2013-03-14 22:39:00,55.8,42.6,30.31,SW,234,6.0,6.0,61,0.00,,CLR,0.00,VWS V14.01,2013-03-15 03:39:00,
2013-03-14 22:44:00,55.7,42.5,30.31,West,271,0.0,3.0,61,0.00,,CLR,0.00,VWS V14.01,2013-03-15 03:44:00,
2013-03-14 22:49:00,55.5,42.7,30.31,SW,232,6.0,6.0,62,0.00,,CLR,0.00,VWS V14.01,2013-03-15 03:49:00,
2013-03-14 22:54:00,55.3,42.9,30.31,WSW,246,0.0,1.5,63,0.00,,CLR,0.00,VWS V14.01,2013-03-15 03:54:00,
2013-03-14 22:59:00,55.0,42.7,30.31,WSW,246,0.0,0.0,63,0.00,,CLR,0.00,VWS V14.01,2013-03-15 03:59:00,
2013-03-14 23:00:00,55.0,43.1,30.31,WSW,246,0.0,0.0,64,0.00,,CLR,0.00,VWS V14.01,2013-03-15 04:00:00,
2013-03-14 23:05:00,54.8,43.3,30.31,West,259,0.0,1.5,65,0.00,,CLR,0.00,VWS V14.01,2013-03-15 04:05:00,
2013-03-14 23:10:00,54.6,43.5,30.31,WSW,242,0.0,3.0,66,0.00,,CLR,0.00,VWS V14.01,2013-03-15 04:10:00,
2013-03-14 23:15:00,54.4,44.5,30.30,SW,217,0.0,4.5,69,0.00,,CLR,0.00,VWS V14.01,2013-03-15 04:15:00,
2013-03-14 23:20:00,54.3,44.7,30.31,WSW,252,0.0,4.5,70,0.00,,CLR,0.00,VWS V14.01,2013-03-15 04:20:00,
2013-03-14 23:25:00,54.2,45.0,30.31,West,261,0.0,7.5,71,0.00,,CLR,0.00,VWS V14.01,2013-03-15 04:25:00,
2013-03-14 23:30:00,54.1,45.3,30.31,WSW,257,0.0,1.5,72,0.00,,CLR,0.00,VWS V14.01,2013-03-15 04:30:00,
2013-03-14 23:35:00,54.0,45.2,30.31,WSW,246,1.5,3.0,72,0.00,,CLR,0.00,VWS V14.01,2013-03-15 04:35:00,
2013-03-14 23:40:00,53.8,45.4,30.31,WSW,240,3.0,3.0,73,0.00,,CLR,0.00,VWS V14.01,2013-03-15 04:40:00,
2013-03-14 23:45:00,53.7,45.3,30.31,West,263,0.0,3.0,73,0.00,,CLR,0.00,VWS V14.01,2013-03-15 04:45:00,
2013-03-14 23:50:00,53.6,45.5,30.31,WSW,242,0.0,3.0,74,0.00,,CLR,0.00,VWS V14.01,2013-03-15 04:50:00,
2013-03-14 23:55:00,53.5,45.4,30.31,WSW,242,0.0,3.0,74,0.00,,CLR,0.00,VWS V14.01,2013-03-15 04:55:00,